Flag for Germany Weather past 2 weeks in Amberg, Bavaria, Germany

Now
82 °F

Sunny.


Feels Like: 81 °F
Forecast: 59 / 91 °F
Wind: 3 mph from Northwest

Location: Hohenfels

Current Time: Jul 6, 2015 at 8:10:26 PM

Latest Report: Jul 6, 2015 at 7:58 PM


Visibility: N/A

Pressure: 30.06 "Hg

Humidity: 30%

Dew point: 48 °F

Location of AmbergLocation

Historic Weather in Amberg — Graph

°F

Amberg temperature yesterday

Maximum temperature yesterday: 97 °F (at 4:58 PM)
Minimum temperature yesterday: 63 °F (at 5:58 AM)
Average temperature yesterday: 80 °F

Past Weeks' High & Low Weather Summary

 TemperatureHumidityPressure
High97 °F (Jul 5, 4:58 PM)100% (Jun 22, 8:58 PM)30.26 "Hg (Jun 22, 8:58 PM)
Low41 °F (Jun 25, 4:58 AM)23% (Jul 5, 4:58 PM)29.72 "Hg (Jun 23, 12:58 AM)
Average67 °F68%30.10 "Hg
* Reported Jun 21 6:58 PM — Jul 6 6:58 PM, Amberg, Weather by CustomWeather, © 2015

Note: Actual official high and low records may vary slightly from our data, if they occured in-between our weather recording intervals... More about our weather records

Advertising

Amberg weather history for previous 24 hours

 ConditionsComfort  
Time TempWeatherWind HumidityBarometerVisibility
6:58 PM
Mon, Jul 6
84 °FSunny.6 mph29%30.06 "HgN/A
5:58 PM84 °FSunny.6 mph31%30.06 "HgN/A
4:58 PM84 °FSunny.7 mph31%30.07 "HgN/A
3:58 PM84 °FSunny.9 mph35%30.09 "HgN/A
2:58 PM82 °FPassing clouds.7 mph40%30.09 "HgN/A
1:58 PM81 °FPassing clouds.9 mph48%30.10 "HgN/A
12:58 PM79 °FScattered clouds.10 mph54%30.11 "HgN/A
11:58 AM77 °FSunny.9 mph57%30.13 "HgN/A
10:58 AM75 °FPassing clouds.9 mph65%30.14 "HgN/A
10:01 AM73 °FBroken clouds.12 mph74%30.20 "HgN/A
8:58 AM73 °FPartly sunny.7 mph74%30.12 "HgN/A
7:58 AM72 °FOvercast.9 mph78%30.09 "HgN/A
6:58 AM70 °FPartly sunny.8 mph83%30.07 "HgN/A
3:58 AM73 °FClear.9 mph65%29.95 "HgN/A
2:58 AM73 °FClear.3 mph65%29.94 "HgN/A
1:58 AM75 °FPassing clouds.2 mph57%29.91 "HgN/A
12:58 AM77 °FClear.No wind54%29.89 "HgN/A
11:58 PM
Sun, Jul 5
75 °FClear.2 mph65%29.89 "HgN/A
10:58 PM73 °FClear.1 mph74%29.91 "HgN/A
9:58 PM79 °FLight rain. Sunny.No wind61%29.91 "Hg4 mi
8:58 PM84 °FSunny.3 mph48%29.90 "HgN/A
Weather by CustomWeather, © 2015

See weather overviewHow to use our weather pages